Time,TemperatureF,DewpointF,PressureIn,WindDirection,WindDirectionDegrees,WindSpeedMPH,WindSpeedGustMPH,Humidity,HourlyPrecipIn,Conditions,Clouds,dailyrainin,SolarRadiationWatts/m^2,SoftwareType,DateUTC
2017-05-24 00:00:00,61.6,58.0,29.61,ESE,121,0.0,0.0,87,0.00,,,0.00,0,weatherlink.com 1.10,2017-05-24 04:00:00,
2017-05-24 00:15:00,61.3,57.0,29.61,ESE,121,0.0,0.0,87,0.00,,,0.00,0,weatherlink.com 1.10,2017-05-24 04:15:00,
2017-05-24 00:30:00,61.1,58.0,29.61,ESE,121,0.0,1.0,88,0.00,,,0.00,0,weatherlink.com 1.10,2017-05-24 04:30:00,
2017-05-24 00:45:00,61.0,58.0,29.62,ESE,121,0.0,2.0,89,0.00,,,0.00,0,weatherlink.com 1.10,2017-05-24 04:45:00,
2017-05-24 01:00:00,61.1,58.0,29.61,ESE,121,0.0,1.0,90,0.00,,,0.00,0,weatherlink.com 1.10,2017-05-24 05:00:00,
2017-05-24 01:15:00,61.2,58.0,29.60,ESE,121,0.0,1.0,90,0.00,,,0.00,0,weatherlink.com 1.10,2017-05-24 05:15:00,
2017-05-24 01:30:00,61.3,59.0,29.60,ESE,121,0.0,2.0,91,0.00,,,0.00,0,weatherlink.com 1.10,2017-05-24 05:30:00,
2017-05-24 01:45:00,61.4,59.0,29.60,ESE,121,0.0,1.0,91,0.00,,,0.00,0,weatherlink.com 1.10,2017-05-24 05:45:00,
2017-05-24 02:00:00,61.1,58.0,29.59,ESE,121,0.0,0.0,90,0.00,,,0.00,0,weatherlink.com 1.10,2017-05-24 06:00:00,
2017-05-24 02:15:00,60.8,58.0,29.58,ESE,121,0.0,0.0,90,0.00,,,0.00,0,weatherlink.com 1.10,2017-05-24 06:15:00,
2017-05-24 02:30:00,60.4,58.0,29.57,ESE,121,0.0,0.0,90,0.00,,,0.00,0,weatherlink.com 1.10,2017-05-24 06:30:00,
2017-05-24 02:45:00,59.9,57.0,29.57,ESE,121,0.0,0.0,90,0.00,,,0.00,0,weatherlink.com 1.10,2017-05-24 06:45:00,
2017-05-24 03:00:00,59.5,57.0,29.56,ESE,121,0.0,0.0,91,0.00,,,0.00,0,weatherlink.com 1.10,2017-05-24 07:00:00,
2017-05-24 03:15:00,59.3,57.0,29.56,ESE,121,0.0,0.0,91,0.00,,,0.00,0,weatherlink.com 1.10,2017-05-24 07:15:00,
2017-05-24 03:30:00,59.5,57.0,29.56,ESE,121,0.0,0.0,92,0.00,,,0.00,0,weatherlink.com 1.10,2017-05-24 07:30:00,
2017-05-24 03:45:00,58.8,57.0,29.56,ESE,121,0.0,0.0,92,0.00,,,0.00,0,weatherlink.com 1.10,2017-05-24 07:45:00,
2017-05-24 04:00:00,59.0,57.0,29.56,ESE,121,0.0,0.0,92,0.00,,,0.00,0,weatherlink.com 1.10,2017-05-24 08:00:00,
2017-05-24 04:15:00,59.3,57.0,29.55,ESE,121,0.0,0.0,92,0.00,,,0.00,0,weatherlink.com 1.10,2017-05-24 08:15:00,
2017-05-24 04:30:00,59.9,58.0,29.55,ESE,121,0.0,0.0,92,0.00,,,0.00,0,weatherlink.com 1.10,2017-05-24 08:30:00,
2017-05-24 04:45:00,60.4,58.0,29.55,ESE,121,2.0,3.0,93,0.00,,,0.00,0,weatherlink.com 1.10,2017-05-24 08:45:00,
2017-05-24 05:00:00,60.8,59.0,29.54,ESE,118,1.0,4.0,92,0.00,,,0.00,0,weatherlink.com 1.10,2017-05-24 09:00:00,
2017-05-24 05:15:00,60.7,58.0,29.53,East,92,2.0,3.0,92,0.00,,,0.00,0,weatherlink.com 1.10,2017-05-24 09:15:00,
2017-05-24 05:30:00,60.4,58.0,29.53,East,92,0.0,1.0,93,0.00,,,0.00,0,weatherlink.com 1.10,2017-05-24 09:30:00,
2017-05-24 05:45:00,60.2,58.0,29.53,East,92,0.0,0.0,93,0.00,,,0.00,0,weatherlink.com 1.10,2017-05-24 09:45:00,
2017-05-24 06:00:00,59.9,58.0,29.54,East,92,0.0,0.0,93,0.00,,,0.00,0,weatherlink.com 1.10,2017-05-24 10:00:00,
2017-05-24 06:15:00,59.8,58.0,29.53,East,92,0.0,3.0,93,0.00,,,0.00,5,weatherlink.com 1.10,2017-05-24 10:15:00,
2017-05-24 06:30:00,59.7,58.0,29.52,East,91,0.0,3.0,93,0.00,,,0.00,9,weatherlink.com 1.10,2017-05-24 10:30:00,
2017-05-24 06:45:00,59.6,58.0,29.53,East,91,0.0,0.0,93,0.00,,,0.00,18,weatherlink.com 1.10,2017-05-24 10:45:00,
2017-05-24 07:00:00,59.9,58.0,29.52,East,91,2.0,2.0,93,0.00,,,0.00,35,weatherlink.com 1.10,2017-05-24 11:00:00,
2017-05-24 07:15:00,60.2,58.0,29.52,East,92,0.0,3.0,92,0.00,,,0.00,35,weatherlink.com 1.10,2017-05-24 11:15:00,
2017-05-24 07:30:00,60.3,58.0,29.52,East,92,0.0,3.0,92,0.00,,,0.00,39,weatherlink.com 1.10,2017-05-24 11:30:00,
2017-05-24 07:46:00,60.5,59.0,29.51,East,92,0.0,3.0,93,0.00,,,0.00,51,weatherlink.com 1.10,2017-05-24 11:46:00,
2017-05-24 08:00:00,60.7,58.0,29.52,East,97,1.0,5.0,92,0.00,,,0.00,56,weatherlink.com 1.10,2017-05-24 12:00:00,
2017-05-24 08:15:00,61.0,59.0,29.51,East,83,2.0,4.0,92,0.00,,,0.00,114,weatherlink.com 1.10,2017-05-24 12:15:00,
2017-05-24 08:31:00,61.2,59.0,29.51,East,93,3.0,4.0,93,0.00,,,0.00,102,weatherlink.com 1.10,2017-05-24 12:31:00,
2017-05-24 08:45:00,61.4,59.0,29.52,ESE,111,0.0,4.0,93,0.00,,,0.00,81,weatherlink.com 1.10,2017-05-24 12:45:00,
2017-05-24 09:01:00,61.6,60.0,29.51,East,101,2.0,5.0,93,0.00,,,0.00,121,weatherlink.com 1.10,2017-05-24 13:01:00,
2017-05-24 09:16:00,62.2,60.0,29.51,ESE,112,3.0,4.0,92,0.00,,,0.00,127,weatherlink.com 1.10,2017-05-24 13:16:00,
2017-05-24 09:31:00,63.6,61.0,29.51,SSE,149,4.0,4.0,92,0.00,,,0.00,385,weatherlink.com 1.10,2017-05-24 13:31:00,
2017-05-24 09:46:00,64.5,61.0,29.51,ESE,103,5.0,7.0,89,0.00,,,0.00,352,weatherlink.com 1.10,2017-05-24 13:46:00,
2017-05-24 10:01:00,65.4,62.0,29.50,ESE,119,4.0,5.0,88,0.00,,,0.00,311,weatherlink.com 1.10,2017-05-24 14:01:00,
2017-05-24 10:16:00,65.7,61.0,29.50,SE,133,3.0,8.0,85,0.00,,,0.00,315,weatherlink.com 1.10,2017-05-24 14:16:00,
2017-05-24 10:31:00,66.1,62.0,29.49,NE,38,5.0,8.0,85,0.00,,,0.00,272,weatherlink.com 1.10,2017-05-24 14:31:00,
2017-05-24 10:46:00,66.3,61.0,29.49,SSE,157,2.0,7.0,82,0.00,,,0.00,267,weatherlink.com 1.10,2017-05-24 14:46:00,
2017-05-24 11:01:00,67.1,61.0,29.48,East,97,3.0,5.0,82,0.00,,,0.00,343,weatherlink.com 1.10,2017-05-24 15:01:00,